Temp
81 82 82 83 83 84 82 82 82 83 82 83 84 84 84 84 84 82 80 80 78 78 80 80 80 79 79 78 77 77 77 76 76 75 75 75 75 75 75 75 75 75 75
82 84 82 83 83 84 85 84 82 82 82 83 83 84 84 84 84 83 84 82 78 77 78 80 80 80 79 79 78 77 76 76 76 75 75 75 75 75 75 76 75 75 74
83 83 83 82 83 83 84 84 83 82 81 83 82 84 84 81 83 83 82 83 83 79 78 78 79 79 79 80 79 78 77 76 76 75 75 75 75 74 75 75 75 75 75
84 82 83 83 81 78 77 76 77 77 77 73 73 75 80 78 82 82 76 76 79 87 82 77 78 79 79 80 80 79 78 76 75 75 75 75 75 74 74 75 75 75 75
79 75 75 77 80 78 78 77 75 77 76 77 79 79 79 79 80 85 80 81 83 83 84 83 77 77 77 79 79 79 79 77 75 75 75 75 75 74 74 74 74 75 74
70 68 71 72 74 73 73 73 76 79 77 77 82 80 77 79 79 78 80 84 83 83 83 82 81 83 75 77 78 79 79 78 77 76 75 74 74 74 74 74 74 74 74
75 71 68 70 75 76 76 78 77 73 73 74 71 71 72 74 74 77 77 80 81 83 80 83 82 84 84 76 76 77 79 79 78 77 75 73 73 74 74 74 74 74 73
79 78 78 78 78 76 76 76 75 73 72 73 69 67 64 68 72 75 76 76 76 77 80 80 79 84 79 81 81 74 77 79 79 78 75 73 73 74 74 74 74 74 73
83 79 79 77 76 75 74 75 75 73 69 71 71 67 63 63 68 70 71 74 75 75 76 76 78 78 77 77 79 80 75 75 77 78 77 74 73 74 74 74 74 74 73
80 80 77 77 76 75 73 73 74 73 71 67 69 72 69 70 66 65 69 70 72 73 73 76 77 76 76 77 80 79 77 73 75 76 77 76 75 74 74 74 74 73 73
78 80 78 76 74 74 73 72 71 70 71 70 70 69 68 71 69 67 65 68 70 71 73 73 74 74 76 76 76 75 75 71 69 72 74 74 75 75 75 75 74 74 73
75 77 78 75 75 73 72 71 71 70 70 70 71 70 70 68 68 67 66 67 68 73 76 74 71 73 75 74 79 77 73 70 69 67 69 70 71 73 74 74 75 75 75
72 72 71 71 71 71 70 69 68 67 68 68 68 69 71 71 72 71 69 68 68 71 74 75 77 72 76 73 75 75 75 68 67 65 64 66 67 69 71 72 74 74 75
70 70 71 70 70 70 69 67 67 66 65 66 65 65 66 67 69 69 66 65 63 66 69 68 77 78 78 71 73 73 75 68 67 64 63 63 64 65 66 68 70 71 71
70 69 67 67 67 67 66 65 65 64 65 64 64 64 64 66 67 68 68 66 62 58 62 68 69 73 73 71 72 72 74 72 67 64 63 62 62 62 63 65 66 68 68
68 67 67 66 66 66 66 64 64 64 63 63 63 62 62 63 64 64 64 65 65 62 59 67 70 70 69 73 74 71 73 69 65 64 64 64 62 62 62 63 64 65 65
67 66 66 66 65 65 64 63 63 63 62 61 62 62 61 61 62 62 62 63 62 63 60 64 68 70 67 67 70 71 71 71 72 64 66 64 62 60 60 61 61 62 63
66 66 66 66 66 66 64 63 62 63 61 61 61 61 61 64 59 60 60 58 60 60 59 57 63 65 65 67 68 67 70 76 73 73 63 62 60 58 58 58 59 59 59
65 66 66 65 65 65 64 64 64 64 62 61 60 59 58 58 57 58 59 57 58 59 58 56 57 62 65 68 68 66 67 67 72 71 66 61 59 57 57 56 56 57 56
64 63 63 64 64 65 65 64 63 61 60 60 59 58 57 57 56 56 56 56 57 55 56 56 55 57 61 64 63 62 63 65 64 72 63 62 57 55 55 56 57 57 55
63 62 62 63 64 63 65 61 60 58 57 56 56 57 57 57 58 57 56 55 54 53 54 53 53 53 55 59 62 64 62 64 63 65 64 62 59 59 57 57 59 57 53
61 61 61 61 60 62 55 53 53 55 54 53 52 54 56 56 55 55 55 55 54 51 50 50 51 50 52 55 59 61 61 59 57 64 62 61 62 60 60 61 56 53 52
58 58 58 59 58 58 52 48 50 54 51 52 52 52 53 57 55 55 54 53 53 52 52 53 50 52 53 57 58 59 60 59 59 63 63 60 62 61 62 58 52 51 50
55 56 56 57 56 57 50 48 48 50 52 53 53 53 52 52 53 53 52 51 52 52 53 55 53 53 56 58 60 60 61 60 61 62 63 59 60 56 55 53 51 50 49
53 54 55 55 55 55 49 47 47 53 52 52 54 54 52 51 49 46 50 49 50 50 54 52 50 50 48 49 55 59 58 57 56 59 62 58 56 53 53 50 50 49 48
51 55 54 55 53 53 50 47 48 53 52 51 51 51 49 48 46 44 47 48 46 48 51 52 53 53 50 52 49 57 59 57 57 57 62 57 54 53 49 51 50 49 47
MSLP
1009.44 1009.60 1009.61 1009.61 1010.07 1009.99 1010.70 1010.87 1010.84 1010.88 1011.15 1010.75 1010.69 1010.74 1010.76 1010.53 1010.52 1010.68 1011.05 1011.55 1011.92 1012.01 1011.97 1012.04 1012.13 1012.26 1012.18 1012.16 1012.22 1012.19 1012.34 1012.47 1012.64 1012.77 1012.92 1013.22 1013.29 1013.40 1013.43 1013.70 1013.83 1014.05 1014.05
1008.90 1009.43 1009.43 1009.36 1009.38 1009.18 1009.35 1009.83 1010.13 1010.25 1010.38 1010.53 1010.62 1010.57 1010.09 1009.50 1009.99 1010.31 1010.42 1010.97 1011.27 1011.48 1011.52 1011.38 1011.41 1011.35 1011.37 1011.43 1011.56 1011.66 1011.57 1011.65 1011.78 1011.87 1011.85 1012.16 1012.36 1012.63 1012.83 1012.90 1012.93 1013.28 1013.23
1008.82 1009.23 1009.37 1009.57 1009.46 1009.22 1009.40 1009.45 1009.83 1010.14 1010.43 1010.93 1010.88 1010.33 1010.63 1011.31 1010.01 1010.80 1010.16 1010.34 1010.48 1010.33 1010.57 1010.51 1010.66 1010.50 1010.50 1010.50 1010.62 1010.85 1011.09 1011.19 1011.14 1011.01 1011.03 1011.15 1011.26 1011.37 1011.82 1012.01 1011.93 1012.42 1012.67
1009.08 1009.30 1009.38 1009.12 1009.10 1009.15 1009.60 1009.98 1010.43 1010.41 1010.81 1012.01 1011.86 1010.67 1010.15 1011.55 1010.03 1010.09 1009.50 1009.55 1009.62 1009.57 1009.50 1009.78 1009.80 1009.90 1009.82 1009.83 1009.93 1010.14 1010.35 1010.48 1010.54 1010.42 1010.56 1010.57 1010.58 1010.87 1011.02 1010.72 1011.05 1011.48 1011.83
1008.66 1009.65 1009.78 1009.49 1008.74 1009.44 1009.70 1010.14 1010.39 1010.57 1010.59 1010.83 1010.78 1010.18 1009.72 1008.91 1008.86 1009.21 1009.71 1009.85 1009.63 1009.46 1009.16 1008.91 1008.82 1008.89 1008.91 1008.98 1009.25 1009.26 1009.32 1009.57 1009.64 1009.66 1009.66 1009.93 1010.11 1010.24 1010.45 1010.48 1010.24 1010.22 1010.72
1007.99 1009.37 1011.12 1011.18 1009.95 1010.32 1008.75 1009.32 1010.00 1010.17 1010.45 1010.47 1010.20 1009.95 1009.70 1009.50 1009.44 1009.45 1009.55 1009.47 1009.24 1008.95 1008.73 1008.48 1008.17 1008.04 1008.04 1008.00 1008.23 1008.21 1008.24 1008.47 1008.52 1008.58 1008.80 1008.94 1009.11 1009.40 1009.65 1009.89 1009.87 1009.55 1009.94
1008.85 1010.00 1010.37 1009.98 1009.91 1009.61 1009.07 1009.75 1010.31 1010.70 1010.82 1010.91 1010.82 1010.55 1010.45 1010.22 1010.02 1009.88 1009.62 1009.18 1008.83 1008.23 1007.85 1007.63 1007.50 1007.31 1007.11 1007.13 1007.04 1007.12 1007.28 1007.50 1007.68 1007.73 1007.85 1008.07 1008.17 1008.49 1008.69 1008.96 1008.94 1009.70 1008.20
1009.26 1009.76 1009.73 1009.97 1009.41 1009.84 1009.98 1010.12 1010.41 1010.56 1010.92 1011.18 1011.45 1011.37 1011.08 1010.89 1010.71 1010.05 1009.56 1009.30 1009.01 1008.60 1008.36 1007.71 1007.64 1007.28 1007.40 1006.60 1006.44 1006.59 1006.70 1006.78 1006.83 1006.91 1007.02 1007.22 1007.37 1007.72 1007.95 1008.13 1008.36 1008.79 1008.90
1008.81 1009.17 1009.50 1009.79 1009.69 1010.32 1010.41 1010.36 1010.38 1010.59 1011.03 1011.05 1011.20 1011.60 1011.19 1010.98 1010.55 1010.12 1009.72 1009.24 1008.97 1008.57 1008.11 1007.54 1007.25 1006.76 1006.58 1006.33 1006.09 1006.04 1006.05 1005.95 1006.05 1006.16 1006.28 1006.45 1006.79 1007.09 1007.27 1007.39 1007.57 1007.94 1008.44
1009.30 1009.28 1009.76 1010.32 1010.32 1010.36 1010.22 1010.10 1010.41 1010.67 1011.04 1011.31 1011.14 1010.79 1010.81 1010.82 1010.49 1009.55 1009.50 1008.98 1008.49 1008.16 1007.53 1007.12 1006.74 1006.25 1005.89 1005.74 1005.43 1005.61 1005.36 1005.27 1005.30 1005.39 1005.58 1006.12 1006.44 1006.55 1006.63 1006.73 1006.98 1007.33 1008.08
1009.06 1009.68 1009.59 1009.96 1010.07 1010.11 1010.01 1010.15 1010.47 1010.67 1010.90 1010.84 1011.18 1011.04 1010.48 1010.31 1010.09 1009.80 1008.74 1008.52 1008.02 1007.43 1006.88 1006.66 1006.32 1005.93 1005.36 1005.25 1004.96 1004.86 1004.77 1004.90 1005.87 1005.44 1005.02 1005.08 1005.42 1005.85 1006.12 1006.20 1006.37 1006.78 1007.15
1008.99 1009.14 1009.24 1009.49 1009.61 1010.00 1010.18 1010.33 1010.50 1010.60 1010.90 1010.78 1010.91 1010.84 1010.52 1010.23 1009.81 1009.75 1008.84 1008.22 1007.66 1007.23 1006.43 1006.07 1005.65 1005.64 1005.06 1004.80 1004.44 1004.25 1004.31 1004.11 1004.18 1004.45 1004.93 1004.90 1005.02 1005.30 1005.61 1005.67 1005.88 1006.26 1006.56
1009.26 1009.24 1009.39 1009.40 1009.77 1010.19 1010.33 1010.53 1010.70 1011.00 1011.01 1011.03 1010.99 1010.61 1010.14 1009.82 1009.49 1009.34 1008.70 1007.72 1007.09 1006.68 1006.12 1005.68 1005.32 1005.13 1004.59 1004.46 1004.11 1003.76 1003.70 1003.86 1003.98 1004.24 1004.63 1004.58 1004.79 1004.87 1004.93 1005.20 1005.44 1005.64 1005.94
1009.83 1009.45 1009.60 1009.91 1010.16 1010.38 1010.52 1010.64 1011.04 1011.04 1010.96 1010.95 1010.67 1010.69 1010.33 1010.08 1009.87 1009.37 1008.74 1008.20 1006.86 1006.23 1006.04 1005.43 1005.07 1004.78 1004.51 1004.06 1003.74 1003.49 1003.47 1003.30 1003.19 1003.34 1003.90 1003.98 1004.24 1004.59 1004.47 1004.69 1004.96 1005.23 1005.47
1010.01 1009.91 1010.16 1010.56 1010.57 1010.53 1010.63 1010.81 1010.83 1010.89 1010.83 1010.49 1010.32 1010.43 1010.28 1009.97 1009.56 1009.22 1008.78 1008.48 1007.56 1006.26 1005.31 1005.12 1004.63 1004.32 1003.86 1003.78 1003.37 1003.23 1003.22 1003.05 1003.52 1003.12 1002.90 1003.37 1003.56 1004.06 1003.97 1004.23 1004.51 1004.76 1005.18
1010.52 1010.36 1010.33 1010.36 1010.01 1010.34 1010.55 1010.53 1010.80 1010.62 1010.36 1010.31 1010.23 1010.21 1009.94 1009.65 1009.45 1009.28 1008.91 1008.44 1007.80 1006.89 1005.08 1005.18 1004.35 1003.93 1003.50 1003.22 1003.15 1003.05 1002.78 1002.84 1002.73 1002.91 1002.63 1002.93 1002.96 1003.08 1003.43 1003.81 1004.14 1004.48 1005.04
1010.28 1010.19 1010.30 1010.32 1010.20 1010.05 1010.28 1010.27 1010.23 1010.06 1009.95 1009.82 1009.74 1009.48 1009.30 1009.16 1009.06 1008.83 1008.71 1008.22 1007.66 1007.03 1005.76 1004.94 1004.42 1003.82 1003.26 1002.98 1002.73 1002.58 1002.47 1002.72 1002.29 1002.96 1002.00 1002.10 1002.33 1002.62 1002.94 1003.31 1003.84 1004.19 1004.78
1010.35 1010.25 1009.83 1009.88 1009.55 1009.75 1009.74 1009.78 1009.55 1009.63 1009.26 1009.18 1009.06 1008.83 1008.64 1008.48 1008.47 1008.22 1008.07 1007.92 1007.57 1007.10 1006.44 1005.11 1004.58 1003.90 1003.60 1003.18 1002.59 1002.24 1002.22 1002.15 1001.98 1001.69 1001.84 1001.84 1001.99 1002.21 1002.67 1003.03 1003.40 1004.01 1004.56
1009.91 1009.77 1009.58 1009.53 1009.39 1009.50 1009.18 1009.19 1009.10 1008.84 1008.68 1008.69 1008.90 1008.64 1008.64 1008.68 1008.25 1007.97 1007.78 1007.53 1007.25 1006.86 1006.38 1005.73 1004.61 1004.01 1003.34 1002.64 1002.23 1001.80 1001.66 1001.44 1001.35 1001.20 1001.25 1001.33 1001.56 1001.78 1002.39 1002.91 1003.36 1003.76 1004.26
1009.86 1009.86 1009.80 1009.52 1009.46 1009.22 1009.07 1008.94 1008.73 1008.59 1008.63 1008.53 1008.44 1008.30 1008.28 1008.14 1007.85 1007.57 1007.29 1007.03 1006.69 1006.25 1006.05 1005.51 1004.73 1004.20 1003.09 1002.41 1001.99 1001.71 1001.41 1001.14 1001.11 1001.11 1001.31 1001.28 1001.64 1002.01 1002.29 1002.84 1003.45 1003.44 1003.86
1009.79 1009.74 1009.58 1009.31 1009.09 1009.02 1008.84 1008.75 1008.84 1008.79 1008.54 1008.18 1007.95 1007.93 1007.67 1007.32 1007.06 1006.82 1006.43 1006.23 1006.20 1005.94 1005.55 1005.21 1004.67 1004.21 1003.47 1002.41 1001.48 1001.13 1001.02 1000.70 1000.61 1000.77 1001.01 1001.72 1002.07 1002.36 1002.73 1003.01 1003.32 1003.64 1003.91
1009.67 1009.51 1009.29 1009.04 1009.02 1009.01 1008.82 1008.81 1008.73 1008.48 1008.29 1007.98 1007.69 1007.28 1006.79 1006.38 1006.01 1005.58 1005.29 1005.19 1005.25 1005.13 1004.82 1004.62 1004.13 1003.63 1003.09 1002.67 1001.82 1000.72 1000.61 1000.48 1000.62 1000.17 1000.66 1001.41 1001.80 1002.17 1002.51 1002.70 1002.95 1003.45 1003.97
1009.71 1009.33 1009.08 1008.89 1008.88 1008.79 1008.59 1008.48 1008.31 1008.16 1007.97 1007.44 1006.94 1006.31 1005.84 1005.25 1004.81 1004.45 1004.12 1003.96 1003.85 1003.80 1003.64 1003.57 1002.96 1002.66 1002.32 1001.85 1001.50 1000.82 1000.36 1000.17 1000.12 1000.06 1000.36 1001.04 1001.44 1001.84 1002.20 1002.54 1003.06 1003.62 1004.35
1009.74 1009.16 1008.84 1008.73 1008.61 1008.33 1008.25 1008.07 1007.81 1007.68 1007.12 1006.47 1005.99 1005.39 1004.84 1004.36 1003.90 1003.54 1003.21 1002.95 1002.70 1002.46 1002.21 1001.79 1001.46 1001.31 1001.00 1000.91 1000.73 1000.38 1000.03 999.82 999.81 999.78 999.88 1000.83 1001.18 1001.95 1002.46 1002.92 1003.15 1003.94 1004.25
1009.81 1009.18 1008.79 1008.51 1008.20 1007.94 1007.83 1007.51 1007.29 1006.79 1006.17 1005.57 1004.92 1004.46 1004.05 1003.48 1002.92 1002.70 1002.51 1001.96 1001.55 1001.02 1000.68 1000.40 1000.11 1000.05 999.89 1000.02 999.71 999.72 999.49 999.73 999.56 999.26 999.30 1000.64 1001.58 1002.67 1003.21 1003.98 1004.40 1004.45 1004.72
1009.70 1008.93 1008.47 1008.09 1007.90 1007.61 1007.29 1006.72 1006.36 1005.86 1005.31 1004.81 1004.42 1003.63 1002.91 1002.49 1001.98 1001.77 1001.58 1000.94 1000.48 999.70 999.14 998.78 998.57 998.20 998.00 998.04 998.26 998.54 998.77 999.03 999.12 998.94 998.56 999.96 1001.28 1002.05 1003.66 1004.58 1005.08 1005.22 1005.75
Wind_Speed
5 5 4 6 9 7 10 8 7 6 9 7 7 8 8 7 7 3 2 12 13 14 15 17 16 17 18 18 18 19 19 18 19 18 19 17 17 18 17 16 16 15 16
5 7 5 4 3 3 4 6 4 4 5 5 7 9 10 7 5 6 4 3 11 14 16 18 19 20 21 20 20 20 20 20 21 20 20 19 19 18 18 18 17 17 17
3 3 5 5 4 4 4 0 2 2 4 4 8 9 6 8 9 8 3 3 8 13 19 18 21 22 22 22 22 21 20 20 21 22 21 21 21 20 19 20 18 18 17
4 5 3 3 3 4 4 4 3 4 4 3 7 5 7 10 10 8 4 5 12 10 10 20 20 21 22 21 21 21 21 20 21 21 20 21 22 18 20 21 19 18 17
2 8 5 5 3 2 1 2 1 3 4 4 4 5 5 5 7 7 6 5 6 6 5 9 16 20 21 22 22 22 22 22 21 22 21 20 20 18 21 20 20 20 17
11 8 5 12 10 7 2 4 3 2 3 5 7 8 7 7 7 6 8 9 10 11 11 9 6 8 20 22 23 23 23 23 24 23 22 20 21 21 20 20 20 20 16
13 13 7 14 13 5 1 4 3 3 3 5 5 5 6 6 7 7 6 9 10 10 8 9 7 7 6 18 22 23 24 24 24 23 21 22 21 21 20 22 20 18 18
9 7 4 4 4 2 5 4 2 1 1 3 2 3 5 6 6 8 7 6 8 6 9 7 7 9 6 4 6 18 21 22 23 23 21 22 22 21 20 21 19 18 22
5 6 5 2 5 3 2 2 1 3 2 2 5 4 4 7 7 5 6 7 11 9 9 8 9 7 7 7 7 7 15 19 22 23 22 21 21 20 19 20 19 18 24
3 5 6 3 3 2 2 1 2 2 1 4 3 5 5 7 9 12 6 6 7 10 9 9 8 7 8 6 8 12 14 15 18 20 20 16 19 19 19 20 17 17 18
4 2 4 4 3 2 4 5 5 4 3 3 5 5 6 8 9 9 12 9 6 5 5 6 6 5 6 7 5 6 15 3 10 13 16 16 17 18 18 17 17 15 18
3 3 2 3 2 3 3 3 4 5 5 6 7 9 10 10 10 12 14 13 14 12 12 9 4 6 6 6 7 10 11 12 16 16 12 12 11 9 12 14 16 16 18
3 5 6 6 5 5 5 5 5 6 7 8 10 10 10 11 11 12 13 14 14 12 12 9 9 7 5 5 5 7 9 11 7 5 11 9 11 11 12 13 13 15 15
5 7 6 5 5 5 5 5 5 6 8 8 11 10 10 10 11 11 12 12 14 14 13 14 11 13 12 5 7 11 8 10 12 12 12 9 9 12 9 10 11 13 10
4 5 5 5 5 6 6 6 7 8 8 8 10 10 10 10 10 11 11 10 13 15 14 11 9 12 8 5 5 5 5 4 14 8 8 9 8 9 6 6 7 7 7
5 5 5 6 6 6 7 7 8 8 8 7 7 10 10 9 10 9 10 11 11 13 17 11 11 7 6 6 9 7 5 5 6 10 9 12 12 10 10 10 11 10 8
5 6 7 8 8 8 8 8 8 10 11 11 11 11 12 10 9 9 9 10 11 12 16 11 11 10 6 7 6 4 4 5 4 17 11 12 11 11 11 11 10 10 10
6 7 7 9 9 10 8 9 11 11 12 12 11 12 13 10 11 10 9 11 12 12 13 19 13 12 13 11 8 5 5 8 7 8 9 9 10 10 10 11 11 11 10
8 9 9 10 10 11 11 9 11 11 10 8 10 11 12 13 12 10 10 10 10 11 12 13 13 11 11 10 12 6 6 5 5 9 10 11 11 10 10 10 11 11 9
9 10 10 11 12 11 10 9 10 11 10 10 11 13 14 15 15 13 11 12 11 11 11 12 12 12 11 10 6 5 6 4 4 5 5 4 4 5 9 11 13 11 12
8 10 11 11 10 9 9 9 11 10 12 13 13 14 16 18 23 22 13 13 15 14 13 12 13 11 11 11 10 7 5 5 3 4 4 2 2 2 5 10 9 13 13
9 10 10 10 8 8 12 13 10 12 13 13 15 16 16 20 20 24 22 24 20 16 16 13 12 13 15 13 13 5 5 3 3 4 4 3 4 5 5 6 11 15 15
11 11 10 9 9 11 11 11 16 13 10 13 16 16 15 13 16 17 18 21 22 22 23 18 19 17 17 15 13 12 6 3 4 4 3 3 5 5 5 6 15 14 10
12 10 8 10 11 10 10 14 16 11 12 16 16 15 15 16 15 16 16 16 17 16 17 14 16 17 17 17 17 12 10 5 4 5 5 3 2 3 5 5 15 14 14
12 10 9 13 13 11 14 17 11 12 12 15 13 13 15 17 20 19 16 16 17 17 17 21 20 23 23 23 21 10 9 6 8 7 6 4 2 5 3 5 5 14 16
12 10 11 12 13 13 16 17 15 9 12 9 13 16 21 19 23 23 17 14 15 16 16 14 15 16 21 19 18 13 8 8 8 6 6 5 7 5 3 3 5 7 8
Wind_Direction
184 192 204 201 181 188 191 208 200 203 197 201 213 225 228 234 242 252 275 189 208 216 209 214 219 227 235 238 235 232 232 231 230 227 232 231 233 235 237 239 241 235 237
179 189 188 222 214 235 205 188 199 207 214 226 232 231 225 217 241 243 244 273 222 226 227 221 221 222 229 235 239 236 231 230 230 227 226 223 228 229 232 234 236 236 236
230 195 182 195 214 213 234 16 46 315 291 319 268 264 273 4 296 250 232 276 297 243 227 224 228 226 227 232 234 234 237 236 234 231 228 223 223 219 224 232 229 233 240
219 229 235 231 97 102 80 66 25 340 303 149 235 203 227 203 218 236 167 211 239 241 227 226 231 234 236 237 237 237 237 235 235 235 235 230 231 228 225 222 223 226 234
66 2 302 317 66 62 165 124 253 240 299 305 272 284 304 330 349 331 320 272 282 289 265 252 228 229 233 235 236 235 236 235 235 235 231 231 233 229 229 232 225 216 221
101 89 357 345 333 342 229 270 194 13 308 293 314 317 319 315 312 303 298 291 290 289 281 271 266 249 227 230 233 234 235 234 234 233 233 224 226 228 230 233 231 217 215
150 170 185 173 216 236 141 127 83 54 337 348 349 329 322 318 308 296 286 281 278 262 279 286 272 259 264 225 228 229 233 236 240 238 230 224 226 225 225 232 234 237 196
171 201 203 217 115 87 59 48 110 90 318 287 289 323 313 312 301 286 284 313 307 324 310 297 311 310 298 308 250 225 235 237 241 241 233 224 226 224 225 233 237 226 232
156 110 100 66 69 46 4 23 337 182 239 257 253 223 299 282 293 305 291 292 291 293 292 288 282 271 279 278 283 291 225 227 236 241 240 225 229 226 227 231 237 225 232
44 70 65 28 48 25 19 354 306 293 284 273 288 240 254 267 283 295 278 274 262 258 261 269 274 270 269 263 259 263 270 223 228 231 238 232 236 232 230 234 239 227 236
98 105 83 32 36 357 358 0 337 328 299 290 280 285 275 271 268 273 288 294 281 273 275 288 262 270 266 263 245 252 266 257 312 267 233 225 226 233 235 239 244 230 223
154 180 163 161 72 15 339 311 311 308 284 276 272 274 276 278 280 283 282 280 272 267 257 252 284 282 267 260 263 268 269 217 205 214 236 230 240 249 251 247 247 238 224
10 58 43 29 5 345 336 331 318 298 292 286 286 285 285 282 287 284 288 288 284 278 271 262 270 250 295 281 274 301 287 220 223 214 232 226 230 235 242 251 246 233 226
341 11 6 352 333 324 315 316 297 290 290 286 291 293 295 292 291 289 287 292 287 282 274 269 274 282 271 267 261 284 295 227 209 205 220 217 224 243 238 248 245 242 205
339 356 344 301 300 303 296 294 291 287 279 283 283 283 280 280 279 286 290 291 282 283 276 281 287 292 299 290 285 300 300 253 248 223 206 228 239 235 222 227 218 210 192
289 295 294 292 300 290 281 278 275 273 280 289 294 290 287 287 288 291 296 294 291 289 286 278 275 282 271 286 290 289 295 236 218 227 212 227 224 211 207 201 198 202 196
307 305 299 294 290 290 278 273 276 280 274 273 271 271 275 275 278 280 284 288 285 288 288 285 288 293 280 268 278 285 299 285 255 244 225 227 236 214 206 202 204 194 194
284 282 288 285 290 290 287 281 280 273 271 273 277 275 277 274 270 271 271 276 282 295 293 291 287 280 273 289 275 245 257 280 266 276 253 244 238 224 201 196 192 189 181
297 293 295 297 296 289 289 283 277 277 286 305 307 304 304 303 295 292 284 281 281 282 291 298 296 290 286 274 263 270 258 246 247 268 267 231 217 194 195 188 182 176 170
315 313 301 298 288 284 286 296 305 300 303 305 309 300 291 285 283 286 283 282 280 279 283 285 287 301 281 260 268 259 263 248 223 246 50 48 124 172 173 181 187 168 157
302 296 292 286 291 297 293 308 309 300 296 295 295 292 285 278 281 278 274 273 273 275 272 277 282 286 291 286 245 241 258 251 241 223 245 140 126 143 184 176 163 156 145
304 291 287 287 305 303 305 294 302 306 303 298 289 284 283 282 278 273 268 260 256 260 265 266 267 266 271 276 288 253 242 224 249 235 160 192 156 170 170 176 159 146 143
307 295 291 293 294 284 286 307 303 297 284 282 284 283 281 273 278 276 270 265 258 254 255 259 260 257 262 263 272 284 269 250 257 262 179 186 173 170 160 134 140 125 137
303 298 299 299 289 287 292 288 285 281 277 282 280 281 282 286 283 278 275 267 265 264 265 256 247 249 249 252 249 257 262 253 278 272 245 171 103 64 93 91 119 124 109
304 304 302 293 292 297 299 290 277 284 283 281 283 290 290 287 280 276 276 270 267 264 262 255 251 255 252 252 242 244 242 240 256 254 223 131 121 92 50 62 82 108 113
287 292 296 294 299 296 297 282 277 281 281 292 287 283 279 274 274 270 267 268 267 268 263 263 263 252 246 235 216 214 219 225 232 255 179 124 147 140 105 51 78 92 90